CAPE
637 736 806 754 612 948 798 981 915 1078 888 1342 1202 1337 1342 1481 1547 1354 1298 1533 1288 1004 754 808 975 1093 990 623 747 754 671 473 220 462 905 835 214 109 135 134 594 722 583
818 591 482 431 289 835 897 777 709 821 1257 1174 1388 1599 1547 1480 1512 1354 1441 1432 1077 1175 1272 1328 878 1011 691 976 700 870 780 823 509 406 612 249 288 126 94 49 364 342 205
753 837 667 572 846 763 1026 756 763 740 1085 1355 1485 1365 1390 1264 1208 1098 1148 1142 1117 1055 1017 889 955 769 715 759 579 420 682 959 513 199 159 150 282 240 118 8 36 53 55
679 896 999 970 816 1069 987 1238 1408 1120 768 1156 1270 1407 902 777 989 1039 987 1018 1157 998 839 846 701 552 507 719 651 457 635 468 274 149 76 135 154 248 89 7 16 15 6
814 578 952 961 982 1055 1005 975 956 912 623 516 932 1124 1185 1177 1015 635 824 836 708 672 520 595 671 701 639 423 489 581 602 314 235 116 118 156 57 62 95 12 34 48 60
601 787 947 824 931 1049 899 899 951 1157 1051 1242 1128 763 862 746 552 415 478 609 476 359 415 405 420 442 406 267 137 122 120 185 177 152 115 78 85 60 18 34 32 117 115
345 542 818 916 639 735 813 752 932 758 706 660 480 340 336 337 219 135 115 100 84 60 140 137 179 249 136 156 62 56 60 56 40 15 18 87 36 6 0 20 71 59 60
24 542 606 597 542 669 714 748 737 851 603 307 315 364 158 80 83 80 93 79 36 60 67 20 4 11 43 49 83 76 39 25 13 3 44 27 5 0 0 3 0 11 189
344 326 333 369 383 459 537 514 538 509 367 305 300 297 205 132 114 137 108 66 9 1 23 33 24 19 3 2 23 47 54 42 25 6 1 0 1 11 2 6 5 24 39
203 179 146 247 266 337 346 212 102 129 199 176 131 138 79 42 21 27 50 38 26 1 17 14 20 10 9 6 12 8 11 43 81 26 19 50 42 26 36 36 31 23 37
195 197 231 143 124 105 101 44 40 101 159 116 91 76 65 30 29 32 44 25 3 10 16 3 3 4 15 23 40 63 79 84 82 88 100 94 82 81 104 76 65 60 59
10 31 82 72 76 16 12 13 35 14 11 7 19 21 4 10 20 20 7 2 14 35 36 43 52 33 17 22 32 47 47 64 83 97 138 97 94 110 105 91 90 92 62
53 37 37 11 4 0 0 2 1 0 0 1 3 3 2 6 2 0 2 8 8 1 10 28 51 65 46 43 36 45 41 23 25 28 28 36 43 40 47 60 57 48 46
63 31 75 87 95 21 48 54 25 10 1 1 6 13 1 0 22 26 8 0 0 5 22 17 51 56 56 33 37 26 17 8 10 0 0 0 0 1 1 0 0 0 27
112 92 126 86 97 36 60 22 20 20 24 13 11 0 13 10 0 0 4 13 20 12 6 3 10 12 15 15 0 0 0 0 0 0 0 0 0 0 0 0 0 0 0
103 169 113 104 107 99 98 17 7 6 4 6 10 9 5 27 39 42 13 2 0 0 0 0 0 0 0 0 0 0 0 0 0 0 0 0 0 0 0 0 0 0 0
61 112 84 76 63 80 49 50 34 0 0 0 0 0 0 0 0 0 0 0 0 0 0 0 0 0 0 0 0 0 0 0 0 0 0 0 0 0 0 0 0 0 0
0 0 0 0 0 0 0 0 0 0 0 0 0 0 0 0 0 0 0 0 0 0 0 0 0 0 0 0 0 0 0 0 0 0 0 0 0 0 0 0 0 0 0
0 0 0 0 0 0 0 0 0 0 0 0 0 0 0 0 0 0 0 0 0 0 0 0 0 0 0 0 0 0 3 7 5 4 2 0 0 0 0 0 0 0 0
0 0 0 0 0 0 0 0 0 0 0 0 0 0 0 0 0 0 0 0 0 0 0 0 0 0 0 0 0 0 0 0 18 42 47 28 0 0 0 0 0 0 0
0 0 0 0 0 0 0 0 0 0 0 0 0 0 0 0 0 0 0 0 0 7 5 1 8 11 19 27 26 22 26 23 18 27 9 18 4 0 0 0 0 0 0
0 0 0 0 0 0 0 0 0 0 0 0 0 0 0 0 0 0 0 0 0 0 0 0 0 0 0 11 30 27 49 66 66 33 16 9 0 0 2 0 0 0 0
0 0 0 0 0 0 0 0 0 0 0 0 0 0 0 0 0 0 0 0 0 0 0 0 0 0 0 7 5 6 9 6 11 9 4 4 3 5 7 0 0 0 2
0 0 0 0 0 0 0 0 0 0 0 0 0 0 0 0 0 0 0 0 0 0 0 0 0 0 0 0 0 0 0 0 0 0 1 0 0 14 12 6 0 3 12
0 0 0 0 0 0 0 0 0 0 0 0 0 0 0 0 0 0 0 0 0 0 0 0 0 0 0 0 0 0 0 12 10 5 1 7 9 12 7 0 0 3 4
0 0 0 0 0 0 0 0 0 0 0 0 0 0 0 0 0 0 0 0 0 0 0 0 0 0 0 0 0 0 0 7 20 21 12 17 6 0 0 0 0 0 0
CIN
-141 -102 -47 -41 -54 -49 -38 -36 -33 -33 -42 -28 -34 -30 -24 -17 -11 -14 -21 -17 -19 -3 -34 -33 -24 -19 -26 -26 -42 -42 -31 -53 -55 -35 -26 -60 -68 -59 -38 -34 -74 -34 -38
-130 -138 -103 -68 -59 -47 -28 -56 -53 -72 -55 -42 -38 -30 -24 -14 -15 -16 -19 -24 -20 -14 -24 -14 -31 -39 -40 -12 -34 -32 -30 -46 -30 -45 -72 -85 -76 -75 -61 -187 -82 -51 -49
-81 -109 -86 -64 -45 -37 -36 -66 -90 -76 -47 -33 -23 -24 -25 -24 -19 -20 -23 -27 -24 -25 -18 -16 -22 -36 -31 -13 -30 -40 -41 -33 -54 -50 -60 -95 -59 -70 -52 -206 -111 -80 -68
-81 -50 -30 -34 -25 -15 -25 -32 -14 -29 -28 -44 -35 -20 -37 -45 -37 -33 -30 -32 -21 -18 -22 -15 -22 -33 -32 -26 -33 -39 -45 -30 -33 -31 -93 -87 -60 -40 -83 -48 -110 -83 -27
-59 -74 -45 -17 -29 -32 -25 -27 -25 -39 -32 -54 -36 -20 -20 -8 -4 -12 -28 -27 -26 -24 -36 -42 -29 -14 -12 -24 -26 -16 -32 -29 -55 -45 -59 -41 -72 -33 -33 -57 -68 -30 -33
-0 -39 -57 -22 -8 -9 -14 -14 -30 -16 -22 -19 -9 -11 -3 -1 -6 -9 -18 -11 -11 -28 -24 -31 -29 -19 -22 -51 -33 -34 -31 -53 -35 -48 -55 -78 -70 -83 -70 -29 -41 -42 -39
-0 -4 -75 -8 -28 -29 -31 -27 -26 -34 -32 -24 -27 -26 -26 -19 -25 -20 -18 -18 -16 -49 -48 -28 -44 -22 -40 -36 -31 -30 -28 -34 -25 -34 -88 -60 -69 -76 -0 -69 -39 -49 -31
-0 -4 -22 -11 -5 -11 -14 -15 -21 -19 -27 -42 -27 -22 -17 -26 -39 -49 -14 -19 -11 -28 -17 -32 -31 -52 -42 -32 -33 -31 -16 -21 -5 -39 -62 -56 -69 -2 -9 -9 -0 -96 -24
-0 -1 -1 -21 -29 -16 -19 -17 -16 -9 -8 -14 -20 -8 -0 -0 -0 -0 -0 -3 -5 -0 -21 -21 -10 -15 -16 -18 -7 -4 -3 -5 -4 -1 -0 -0 -13 -25 -21 -30 -61 -85 -70
-0 -11 -0 -1 -6 -6 -0 -0 -19 -50 -22 -18 -5 -1 -6 -15 -6 -5 -5 -9 -4 -0 -0 -3 -4 -1 -0 -4 -0 -32 -23 -24 -18 -20 -20 -6 -11 -55 -49 -30 -12 -57 -83
-0 -0 -0 -1 -22 -12 -1 -4 -2 -4 -2 -17 -20 -6 -13 -20 -14 -2 -0 -1 -0 -0 -0 -0 -5 -7 -8 -14 -20 -11 -17 -17 -15 -22 -58 -51 -24 -48 -15 -10 -18 -11 -10
-5 -0 -0 -0 -0 -4 -2 -2 -0 -1 -0 -4 -69 -14 -9 -0 -1 -0 -0 -0 -2 -1 -3 -2 -6 -15 -25 -6 -6 -14 -33 -30 -17 -27 -25 -26 -34 -31 -22 -12 -10 -5 -4
-3 -1 -2 -0 -0 -3 -3 -2 -48 -0 -0 -0 -1 -2 -12 -5 -0 -0 -39 -28 -31 -54 -56 -47 -17 -18 -17 -4 -7 -9 -7 -9 -9 -10 -7 -4 -8 -11 -19 -23 -31 -25 -28
-0 -0 -2 -0 -0 -22 -5 -11 -14 -57 -24 -63 -44 -66 -79 -0 -0 -0 -1 -0 -0 -28 -17 -20 -7 -2 -2 -25 -27 -31 -22 -22 -20 -5 -0 -0 -0 -0 -12 -0 -0 -0 -3
-0 -5 -0 -1 -0 -3 -1 -29 -83 -78 -40 -61 -30 -0 -82 -109 -0 -0 -4 -6 -2 -3 -5 -11 -9 -5 -8 -2 -0 -0 -0 -0 -0 -0 -0 -0 -0 -0 -0 -0 -0 -0 -0
-8 -0 -0 -0 -0 -0 -0 -35 -66 -52 -38 -7 -16 -1 -0 -50 -62 -58 -25 -3 -0 -0 -0 -0 -0 -0 -0 -0 -0 -0 -0 -0 -0 -0 -0 -0 -0 -0 -0 -0 -0 -0 -0
-39 -1 -0 -0 -3 -3 -6 -1 -3 -0 -0 -0 -0 -0 -0 -0 -0 -0 -0 -0 -0 -0 -0 -0 -0 -0 -0 -0 -0 -0 -0 -0 -0 -0 -0 -0 -0 -0 -0 -0 -0 -0 -0
-0 -0 -0 -0 -0 -0 -0 -0 -0 -0 -0 -0 -0 -0 -0 -0 -0 -0 -0 -0 -0 -0 -0 -0 -0 -0 -0 -0 -0 -0 -0 -0 -0 -0 -0 -0 -0 -0 -0 -0 -0 -0 -0
-0 -0 -0 -0 -0 -0 -0 -0 -0 -0 -0 -0 -0 -0 -0 -0 -0 -0 -0 -0 -0 -0 -0 -0 -0 -0 -0 -0 -0 -0 -16 -15 -2 -0 -0 -0 -0 -0 -0 -0 -0 -0 -0
-0 -0 -0 -0 -0 -0 -0 -0 -0 -0 -0 -0 -0 -0 -0 -0 -0 -0 -0 -0 -0 -0 -0 -0 -0 -0 -0 -0 -0 -0 -0 -0 -2 -2 -1 -2 -0 -0 -0 -0 -0 -0 -0
-0 -0 -0 -0 -0 -0 -0 -0 -0 -0 -0 -0 -0 -0 -0 -0 -0 -0 -0 -0 -1 -10 -25 -31 -23 -15 -26 -26 -18 -21 -15 -2 -8 -12 -10 -1 -8 -0 -0 -0 -0 -0 -0
-0 -0 -0 -0 -0 -0 -0 -0 -0 -0 -0 -0 -0 -0 -0 -0 -0 -0 -0 -0 -0 -0 -0 -0 -0 -0 -0 -52 -41 -41 -17 -5 -4 -17 -14 -10 -0 -6 -38 -0 -0 -0 -0
-0 -0 -0 -0 -0 -0 -0 -0 -0 -0 -0 -0 -0 -0 -0 -0 -0 -0 -0 -0 -0 -0 -0 -0 -0 -0 -0 -27 -31 -24 -17 -9 -33 -7 -5 -1 -0 -2 -3 -0 -0 -0 -6
-0 -0 -0 -0 -0 -0 -0 -0 -0 -0 -0 -0 -0 -0 -0 -0 -0 -0 -0 -0 -0 -0 -0 -0 -0 -0 -0 -0 -0 -0 -0 -0 -0 -0 -1 -0 -0 -0 -0 -0 -0 -1 -1
-0 -0 -0 -0 -0 -0 -0 -0 -0 -0 -0 -0 -0 -0 -0 -0 -0 -0 -0 -0 -0 -0 -0 -0 -0 -0 -0 -0 -0 -0 -0 -2 -0 -0 -0 -1 -0 -0 -0 -0 -0 -0 -3
-0 -0 -0 -0 -0 -0 -0 -0 -0 -0 -0 -0 -0 -0 -0 -0 -0 -0 -0 -0 -0 -0 -0 -0 -0 -0 -0 -0 -0 -0 -0 -0 -0 -0 -0 -0 -0 -0 -0 -0 -0 -0 -0
Wind_Speed
12 12 13 16 17 17 18 17 16 18 17 17 15 13 12 13 12 14 13 14 15 14 13 13 13 14 13 13 12 12 10 14 16 10 10 11 15 13 13 11 14 17 17
11 15 13 15 13 15 18 18 18 18 19 18 17 17 17 17 17 17 15 14 13 13 10 10 12 15 13 12 15 16 17 17 17 15 15 14 17 16 nan nan 21 19 20
16 17 15 15 15 13 18 18 20 18 18 18 18 18 18 18 17 17 18 16 14 17 17 16 13 14 14 18 19 17 19 19 22 21 18 17 20 19 15 nan nan nan nan
22 23 18 20 19 19 19 20 22 22 21 20 20 18 20 19 20 22 21 20 20 19 18 17 19 18 20 20 20 21 22 23 22 22 nan 21 21 18 nan nan nan nan nan
28 28 25 25 27 26 26 25 26 26 24 24 24 24 23 28 28 29 26 25 24 22 22 22 24 28 29 27 28 27 28 28 28 27 26 23 nan nan nan nan nan nan nan
53 29 37 32 33 30 28 28 29 27 27 30 30 33 36 33 33 36 35 33 31 29 27 27 29 36 37 32 37 35 35 33 33 31 28 nan nan nan nan nan nan 26 24
26 25 41 36 35 34 33 33 31 31 32 33 34 38 37 36 32 36 39 36 nan nan 36 31 27 38 38 38 nan nan nan nan nan nan nan nan nan nan nan nan nan nan nan
nan 49 52 43 39 39 39 36 33 36 34 35 40 42 42 nan nan nan nan nan nan nan nan nan nan nan nan nan nan nan nan nan nan nan nan nan nan nan nan nan nan nan 43
23 24 28 45 41 45 40 37 39 39 41 42 40 44 46 42 45 39 41 nan nan nan nan nan nan nan nan nan nan nan nan nan nan nan nan nan nan nan nan nan nan nan nan
57 38 39 39 46 58 44 42 42 42 51 46 48 47 nan nan nan nan nan nan nan nan nan nan nan nan nan nan nan nan nan nan nan nan nan nan nan nan nan nan nan nan nan
53 48 45 55 51 53 45 nan nan 46 44 46 nan nan nan nan nan nan nan nan nan nan nan nan nan nan nan nan nan nan nan nan nan nan 48 nan nan nan 62 nan nan nan nan
nan nan nan nan nan nan nan nan nan nan nan nan nan nan nan nan nan nan nan nan nan nan nan nan nan nan nan nan nan nan nan nan nan nan 50 nan nan 46 47 nan nan nan nan
nan nan nan nan nan nan nan nan nan nan nan nan nan nan nan nan nan nan nan nan nan nan nan nan nan nan nan nan nan nan nan nan nan nan nan nan nan nan nan nan nan nan nan
nan nan nan nan nan nan nan nan nan nan nan nan nan nan nan nan nan nan nan nan nan nan nan nan nan nan nan nan nan nan nan nan nan nan nan nan nan nan nan nan nan nan nan
15 nan 13 nan nan nan nan nan nan nan nan nan nan nan nan nan nan nan nan nan nan nan nan nan nan nan nan nan nan nan nan nan nan nan nan nan nan nan nan nan nan nan nan
7 5 6 7 10 nan nan nan nan nan nan nan nan nan nan nan nan nan nan nan nan nan nan nan nan nan nan nan nan nan nan nan nan nan nan nan nan nan nan nan nan nan nan
nan 7 nan nan nan nan nan nan nan nan nan nan nan nan nan nan nan nan nan nan nan nan nan nan nan nan nan nan nan nan nan nan nan nan nan nan nan nan nan nan nan nan nan
nan nan nan nan nan nan nan nan nan nan nan nan nan nan nan nan nan nan nan nan nan nan nan nan nan nan nan nan nan nan nan nan nan nan nan nan nan nan nan nan nan nan nan
nan nan nan nan nan nan nan nan nan nan nan nan nan nan nan nan nan nan nan nan nan nan nan nan nan nan nan nan nan nan nan nan nan nan nan nan nan nan nan nan nan nan nan
nan nan nan nan nan nan nan nan nan nan nan nan nan nan nan nan nan nan nan nan nan nan nan nan nan nan nan nan nan nan nan nan nan nan nan nan nan nan nan nan nan nan nan
nan nan nan nan nan nan nan nan nan nan nan nan nan nan nan nan nan nan nan nan nan nan nan nan nan nan nan nan nan nan nan nan nan nan nan nan nan nan nan nan nan nan nan
nan nan nan nan nan nan nan nan nan nan nan nan nan nan nan nan nan nan nan nan nan nan nan nan nan nan nan nan nan nan nan nan nan nan nan nan nan nan nan nan nan nan nan
nan nan nan nan nan nan nan nan nan nan nan nan nan nan nan nan nan nan nan nan nan nan nan nan nan nan nan nan nan nan nan nan nan nan nan nan nan nan nan nan nan nan nan
nan nan nan nan nan nan nan nan nan nan nan nan nan nan nan nan nan nan nan nan nan nan nan nan nan nan nan nan nan nan nan nan nan nan nan nan nan nan nan nan nan nan nan
nan nan nan nan nan nan nan nan nan nan nan nan nan nan nan nan nan nan nan nan nan nan nan nan nan nan nan nan nan nan nan nan nan nan nan nan nan nan nan nan nan nan nan
nan nan nan nan nan nan nan nan nan nan nan nan nan nan nan nan nan nan nan nan nan nan nan nan nan nan nan nan nan nan nan nan nan nan nan nan nan nan nan nan nan nan nan
Wind_Direction
267 261 255 253 252 243 245 239 239 239 237 253 259 260 260 256 261 265 267 272 271 270 279 286 287 290 294 290 290 284 278 284 298 300 293 285 280 282 279 283 277 283 291
239 257 256 255 257 258 256 252 252 253 252 257 255 256 254 257 263 264 267 259 265 278 281 269 265 274 276 295 288 287 283 286 291 297 301 291 291 306 nan nan 283 287 290
226 248 250 254 251 255 257 256 255 256 257 257 254 257 260 263 270 272 276 273 272 279 290 286 279 272 279 291 293 290 294 292 300 301 296 296 303 306 286 nan nan nan nan
241 231 239 253 254 252 250 255 261 259 260 260 259 265 269 273 276 273 270 277 276 278 276 278 279 285 287 283 283 288 287 284 291 289 nan 283 284 291 nan nan nan nan nan
247 247 236 236 242 246 250 251 253 256 253 256 259 258 265 264 261 263 263 276 276 272 271 274 274 277 279 277 279 280 285 284 284 281 282 284 nan nan nan nan nan nan nan
210 230 239 234 236 235 241 247 253 253 257 261 261 258 260 261 261 266 268 268 263 264 266 265 275 282 276 273 275 274 279 280 281 282 274 nan nan nan nan nan nan 282 274
183 208 252 245 245 240 237 242 248 252 252 257 260 261 263 263 262 263 266 264 nan nan 264 260 273 274 270 272 nan nan nan nan nan nan nan nan nan nan nan nan nan nan nan
nan 233 235 241 240 241 248 248 244 248 250 252 254 258 259 nan nan nan nan nan nan nan nan nan nan nan nan nan nan nan nan nan nan nan nan nan nan nan nan nan nan nan 274
257 181 228 235 228 234 241 244 248 249 250 253 256 261 262 253 244 248 265 nan nan nan nan nan nan nan nan nan nan nan nan nan nan nan nan nan nan nan nan nan nan nan nan
253 248 238 251 256 236 230 243 249 253 249 246 252 258 nan nan nan nan nan nan nan nan nan nan nan nan nan nan nan nan nan nan nan nan nan nan nan nan nan nan nan nan nan
251 253 252 246 250 243 250 nan nan 258 259 268 nan nan nan nan nan nan nan nan nan nan nan nan nan nan nan nan nan nan nan nan nan nan 279 nan nan nan 265 nan nan nan nan
nan nan nan nan nan nan nan nan nan nan nan nan nan nan nan nan nan nan nan nan nan nan nan nan nan nan nan nan nan nan nan nan nan nan 273 nan nan 268 270 nan nan nan nan
nan nan nan nan nan nan nan nan nan nan nan nan nan nan nan nan nan nan nan nan nan nan nan nan nan nan nan nan nan nan nan nan nan nan nan nan nan nan nan nan nan nan nan
nan nan nan nan nan nan nan nan nan nan nan nan nan nan nan nan nan nan nan nan nan nan nan nan nan nan nan nan nan nan nan nan nan nan nan nan nan nan nan nan nan nan nan
212 nan 223 nan nan nan nan nan nan nan nan nan nan nan nan nan nan nan nan nan nan nan nan nan nan nan nan nan nan nan nan nan nan nan nan nan nan nan nan nan nan nan nan
284 315 317 306 309 nan nan nan nan nan nan nan nan nan nan nan nan nan nan nan nan nan nan nan nan nan nan nan nan nan nan nan nan nan nan nan nan nan nan nan nan nan nan
nan 355 nan nan nan nan nan nan nan nan nan nan nan nan nan nan nan nan nan nan nan nan nan nan nan nan nan nan nan nan nan nan nan nan nan nan nan nan nan nan nan nan nan
nan nan nan nan nan nan nan nan nan nan nan nan nan nan nan nan nan nan nan nan nan nan nan nan nan nan nan nan nan nan nan nan nan nan nan nan nan nan nan nan nan nan nan
nan nan nan nan nan nan nan nan nan nan nan nan nan nan nan nan nan nan nan nan nan nan nan nan nan nan nan nan nan nan nan nan nan nan nan nan nan nan nan nan nan nan nan
nan nan nan nan nan nan nan nan nan nan nan nan nan nan nan nan nan nan nan nan nan nan nan nan nan nan nan nan nan nan nan nan nan nan nan nan nan nan nan nan nan nan nan
nan nan nan nan nan nan nan nan nan nan nan nan nan nan nan nan nan nan nan nan nan nan nan nan nan nan nan nan nan nan nan nan nan nan nan nan nan nan nan nan nan nan nan
nan nan nan nan nan nan nan nan nan nan nan nan nan nan nan nan nan nan nan nan nan nan nan nan nan nan nan nan nan nan nan nan nan nan nan nan nan nan nan nan nan nan nan
nan nan nan nan nan nan nan nan nan nan nan nan nan nan nan nan nan nan nan nan nan nan nan nan nan nan nan nan nan nan nan nan nan nan nan nan nan nan nan nan nan nan nan
nan nan nan nan nan nan nan nan nan nan nan nan nan nan nan nan nan nan nan nan nan nan nan nan nan nan nan nan nan nan nan nan nan nan nan nan nan nan nan nan nan nan nan
nan nan nan nan nan nan nan nan nan nan nan nan nan nan nan nan nan nan nan nan nan nan nan nan nan nan nan nan nan nan nan nan nan nan nan nan nan nan nan nan nan nan nan
nan nan nan nan nan nan nan nan nan nan nan nan nan nan nan nan nan nan nan nan nan nan nan nan nan nan nan nan nan nan nan nan nan nan nan nan nan nan nan nan nan nan nan